FW3182 Weather Reports


time (UTC)temp
F
wind
direction
speed
knots
gust
knots
rain 1hr
in
rain 24hr
in
rain mn
in
humidity
%
barometer
mb
20260510190704 72 41 2.6 8.7 0.00 0.00 0.00 54 1017.1
20260510190204 71 347 1.7 6.1 0.00 0.00 0.00 55 1017.0
20260510185704 71 31 2.6 11.3 0.00 0.00 0.00 55 1016.9
20260510184704 72 15 1.7 6.1 0.00 0.00 0.00 55 1017.0
20260510184203 73 289 0.9 4.3 0.00 0.00 0.00 57 1017.0
20260510183704 72 338 0.0 0.9 0.00 0.00 0.00 59 1016.9
20260510183203 72 32 0.9 1.7 0.00 0.00 0.00 57 1016.9
20260510182203 72 31 1.7 5.2 0.00 0.00 0.00 59 1016.9
20260510181703 72 59 0.0 4.3 0.00 0.00 0.00 60 1016.9
20260510181204 71 57 0.0 1.7 0.00 0.00 0.00 58 1016.8
20260510180704 70 59 1.7 4.3 0.00 0.00 0.00 59 1016.6
20260510175704 70 86 2.6 5.2 0.00 0.00 0.00 59 1016.7
20260510175203 70 338 4.3 10.4 0.00 0.00 0.00 58 1016.6
20260510174203 70 60 2.6 10.4 0.00 0.00 0.00 59 1016.5
20260510173703 70 90 1.7 6.1 0.00 0.00 0.00 61 1016.4
20260510173203 69 47 2.6 5.2 0.00 0.00 0.00 60 1016.4
20260510172703 69 3 2.6 7.8 0.00 0.00 0.00 61 1016.4
20260510172204 68 352 1.7 7.8 0.00 0.00 0.00 64 1016.5
20260510170704 68 279 2.6 8.7 0.00 0.00 0.00 66 1016.4
20260510170204 68 37 4.3 8.7 0.00 0.00 0.00 65 1016.3
20260510165704 68 60 1.7 8.7 0.00 0.00 0.00 66 1016.2
20260510165204 67 38 2.6 7.8 0.00 0.00 0.00 67 1016.1
20260510164704 67 42 4.3 10.4 0.00 0.00 0.00 68 1016.1
20260510164204 67 32 4.3 12.2 0.00 0.00 0.00 69 1016.2
20260510163704 67 14 3.5 7.8 0.00 0.00 0.00 69 1016.0
20260510163204 67 43 3.5 7.8 0.00 0.00 0.00 70 1016.0
20260510162204 67 35 3.5 8.7 0.00 0.00 0.00 69 1016.0
20260510161704 67 21 3.5 8.7 0.00 0.00 0.00 70 1016.0
20260510161204 67 353 2.6 7.8 0.00 0.00 0.00 71 1015.9
20260510160704 67 37 2.6 7.0 0.00 0.00 0.00 72 1015.8
20260510160204 67 56 1.7 8.7 0.00 0.00 0.00 71 1015.7
20260510155704 67 59 2.6 6.1 0.00 0.00 0.00 71 1015.5
20260510155204 67 8 1.7 4.3 0.00 0.00 0.00 72 1015.6
20260510154703 67 35 3.5 7.8 0.00 0.00 0.00 71 1015.4
20260510154203 67 44 2.6 6.1 0.00 0.00 0.00 72 1015.3
20260510152704 67 350 0.9 2.6 0.00 0.00 0.00 72 1015.3
20260510151704 67 37 0.9 4.3 0.00 0.00 0.00 71 1015.3
20260510150703 67 29 0.9 2.6 0.00 0.00 0.00 74 1015.5
20260510150203 67 71 1.7 2.6 0.00 0.00 0.00 73 1015.5
20260510145703 67 340 0.0 2.6 0.00 0.00 0.00 73 1015.5
20260510145204 67 43 0.9 5.2 0.00 0.00 0.00 74 1015.5
20260510144704 67 230 0.0 4.3 0.00 0.00 0.00 74 1015.5
20260510143703 68 317 0.9 2.6 0.00 0.00 0.00 74 1015.5
20260510143203 68 303 0.9 2.6 0.00 0.00 0.00 73 1015.5
20260510142704 68 286 0.0 0.9 0.00 0.00 0.00 73 1015.5
20260510142204 68 32 0.0 0.9 0.00 0.00 0.00 74 1015.5
20260510141704 68 274 0.0 0.9 0.00 0.00 0.00 75 1015.5
20260510140703 66 342 0.9 2.6 0.00 0.00 0.00 75 1015.4
20260510140203 66 18 1.7 5.2 0.00 0.00 0.00 76 1015.3
20260510135704 66 67 0.9 2.6 0.00 0.00 0.00 77 1015.1
20260510135204 65 10 0.9 2.6 0.00 0.00 0.00 77 1015.1
20260510134704 64 7 0.9 2.6 0.00 0.00 0.00 78 1015.0
20260510134203 64 8 1.7 2.6 0.00 0.00 0.00 77 1014.9
20260510133703 64 353 1.7 4.3 0.00 0.00 0.00 77 1014.7
20260510131204 63 314 0.0 1.7 0.00 0.00 0.00 78 1014.2
20260510130203 62 319 0.9 2.6 0.00 0.00 0.00 79 1014.0
20260510125703 62 45 0.9 4.3 0.00 0.00 0.00 78 1014.0
20260510125203 61 50 0.9 2.6 0.00 0.00 0.00 79 1014.0
20260510124703 61 45 0.0 1.7 0.00 0.00 0.00 80 1013.7
20260510124203 62 336 1.7 2.6 0.00 0.00 0.00 82 1013.8
20260510123703 62 64 0.0 0.9 0.00 0.00 0.00 83 1013.5
20260510123203 62 64 0.0 0.9 0.00 0.00 0.00 82 1013.4
20260510122703 61 86 0.0 1.7 0.00 0.00 0.00 82 1013.3
20260510122203 61 73 0.0 0.9 0.00 0.00 0.00 83 1013.3
20260510121703 61 73 0.0 1.7 0.00 0.00 0.00 83 1013.3
20260510121203 62 45 0.9 1.7 0.00 0.00 0.00 83 1013.5
20260510120704 62 45 0.9 1.7 0.00 0.00 0.00 82 1013.4
20260510120203 62 15 0.0 2.6 0.00 0.00 0.00 82 1013.4
20260510115703 63 16 0.9 1.7 0.00 0.00 0.00 83 1013.2
20260510115203 63 180 0.0 0.9 0.00 0.00 0.00 82 1013.0
20260510114203 62 175 0.0 0.0 0.00 0.00 0.00 81 1012.9
20260510113703 62 175 0.0 1.7 0.00 0.00 0.00 81 1012.9
20260510113203 62 205 0.9 1.7 0.00 0.00 0.00 82 1012.9
20260510112703 61 132 0.0 1.7 0.00 0.00 0.00 81 1012.8
20260510112204 61 79 0.0 0.0 0.00 0.00 0.00 81 1012.7
20260510111704 61 79 0.0 0.0 0.00 0.00 0.00 80 1012.7
20260510111204 61 79 0.0 0.0 0.00 0.00 0.00 80 1012.7
20260510110704 61 79 0.0 0.0 0.00 0.00 0.00 80 1012.8
20260510110204 61 79 0.0 0.0 0.00 0.00 0.00 80 1012.7
20260510105203 61 79 0.0 0.0 0.00 0.00 0.00 79 1012.8
20260510104703 61 79 0.0 0.0 0.00 0.00 0.00 79 1012.7
20260510104204 61 79 0.0 0.0 0.00 0.00 0.00 79 1012.6
20260510103704 61 79 0.0 0.0 0.00 0.00 0.00 80 1012.7
20260510103204 61 79 0.0 0.0 0.00 0.00 0.00 79 1012.6
20260510102704 61 79 0.0 0.0 0.00 0.00 0.00 78 1012.6
20260510102204 61 79 0.0 0.0 0.00 0.00 0.00 78 1012.7
20260510101704 61 79 0.0 0.0 0.00 0.00 0.00 76 1012.7
20260510101204 62 79 0.0 0.0 0.00 0.00 0.00 76 1012.5
20260510100704 62 79 0.0 0.0 0.00 0.00 0.00 77 1012.5
20260510100203 62 79 0.0 0.0 0.00 0.00 0.00 77 1012.5
20260510095703 62 79 0.0 0.0 0.00 0.00 0.00 77 1012.4
20260510095203 62 79 0.0 0.0 0.00 0.00 0.00 76 1012.1
20260510094704 62 79 0.0 0.0 0.00 0.00 0.00 75 1012.0
20260510094204 62 79 0.0 0.0 0.00 0.00 0.00 74 1011.9
20260510093704 62 79 0.0 0.0 0.00 0.00 0.00 73 1011.8
20260510093204 62 79 0.0 0.0 0.00 0.00 0.00 72 1012.0
20260510092704 62 79 0.0 0.0 0.00 0.00 0.00 72 1011.9
20260510092204 62 79 0.0 0.0 0.00 0.00 0.00 73 1011.8
20260510091703 62 79 0.0 0.0 0.00 0.00 0.00 73 1011.8
20260510090703 61 79 0.0 0.0 0.00 0.00 0.00 74 1011.8
20260510090204 61 79 0.0 0.0 0.00 0.00 0.00 74 1011.9
20260510085704 61 79 0.0 0.0 0.00 0.00 0.00 75 1012.1
20260510085204 61 79 0.0 0.9 0.00 0.00 0.00 74 1012.0
20260510084203 60 79 0.0 0.0 0.00 0.00 0.00 75 1011.8
20260510083704 60 79 0.0 0.0 0.00 0.00 0.00 74 1012.0
20260510083204 60 79 0.0 0.0 0.00 0.00 0.00 74 1012.0
20260510082703 61 46 0.0 0.0 0.00 0.00 0.00 74 1011.8
20260510081704 61 38 0.9 2.6 0.00 0.00 0.00 74 1011.5
20260510081204 61 63 0.0 1.7 0.00 0.00 0.00 74 1011.6
20260510080703 61 59 0.9 1.7 0.00 0.00 0.00 74 1011.7
20260510080204 61 28 0.9 0.9 0.00 0.00 0.00 74 1011.7
20260510075704 61 344 1.7 2.6 0.00 0.00 0.00 74 1011.6
20260510075204 61 57 0.0 1.7 0.00 0.00 0.00 74 1011.8
20260510074203 61 332 0.9 2.6 0.00 0.00 0.00 71 1011.7
20260510073704 61 43 1.7 2.6 0.00 0.00 0.00 68 1011.7
20260510073204 61 179 0.9 0.9 0.00 0.00 0.00 69 1011.5
20260510072703 61 184 0.0 0.0 0.00 0.00 0.00 68 1011.3
20260510072203 61 184 0.0 0.0 0.00 0.00 0.00 68 1011.2
20260510071704 61 184 0.0 0.0 0.00 0.00 0.00 67 1011.1
20260510071204 61 184 0.0 0.0 0.00 0.00 0.00 68 1011.0
20260510070204 61 199 0.0 0.9 0.00 0.00 0.00 69 1011.1
20260510065704 61 181 0.0 0.0 0.00 0.00 0.00 69 1011.1
20260510065204 61 127 0.0 0.9 0.00 0.00 0.00 70 1011.1
20260510064204 62 97 0.0 0.0 0.00 0.00 0.00 71 1011.2
20260510063704 62 97 0.0 0.0 0.00 0.00 0.00 69 1011.3
20260510063204 63 97 0.0 0.9 0.00 0.00 0.00 67 1011.4
20260510062704 63 97 0.0 0.0 0.00 0.00 0.00 65 1011.4
20260510062204 63 202 0.0 0.9 0.00 0.00 0.00 65 1011.4
20260510061203 63 196 0.0 0.9 0.00 0.00 0.00 62 1011.4
20260510060704 64 196 0.0 0.0 0.00 0.00 0.00 62 1011.4
20260510060204 64 196 0.0 0.0 0.00 0.00 0.00 62 1011.4
20260510055704 64 196 0.0 0.0 0.00 0.00 0.00 62 1011.4
20260510055204 64 196 0.0 0.0 0.00 0.00 0.00 62 1011.4
20260510054704 64 196 0.0 0.0 0.00 0.00 0.00 62 1011.3
20260510054204 64 196 0.0 0.0 0.00 0.00 0.00 62 1011.4
20260510053704 64 196 0.0 0.0 0.00 0.00 0.00 62 1011.4
20260510053204 64 196 0.0 0.0 0.00 0.00 0.00 63 1011.4
20260510052704 64 196 0.0 0.0 0.00 0.00 0.00 65 1011.3
20260510051204 63 196 0.0 0.0 0.00 0.00 0.00 68 1011.3
20260510050704 62 196 0.0 0.0 0.00 0.00 0.00 69 1011.2
20260510045704 62 196 0.0 0.0 0.00 0.00 0.00 70 1011.0
20260510045203 62 196 0.0 0.0 0.00 0.00 0.00 71 1011.1
20260510044203 62 196 0.0 0.0 0.00 0.00 0.00 71 1011.2
20260510043703 62 196 0.0 0.0 0.00 0.00 0.00 71 1011.1
20260510043203 62 196 0.0 0.0 0.00 0.00 0.00 70 1011.1
20260510042703 63 196 0.0 0.0 0.00 0.00 0.00 69 1011.1
20260510042203 64 219 0.0 0.0 0.00 0.00 0.00 67 1011.1
20260510041703 65 219 0.0 0.0 0.00 0.00 0.00 64 1011.0
20260510041203 65 219 0.0 0.0 0.00 0.00 0.00 64 1010.9
20260510040704 66 219 0.0 0.0 0.00 0.00 0.00 63 1010.7
20260510040204 66 219 0.0 0.0 0.00 0.00 0.00 62 1010.7
20260510035703 66 219 0.0 0.0 0.00 0.00 0.00 61 1010.7
20260510035203 66 219 0.0 0.0 0.00 0.00 0.00 61 1010.7
20260510034704 66 219 0.0 0.0 0.00 0.00 0.00 61 1010.7
20260510034204 66 219 0.0 0.0 0.00 0.00 0.00 61 1010.7
20260510033704 67 219 0.0 0.0 0.00 0.00 0.00 60 1010.6
20260510033204 67 219 0.0 0.0 0.00 0.00 0.00 60 1010.5
20260510032704 67 219 0.0 0.0 0.00 0.00 0.00 58 1010.5
20260510031703 68 219 0.0 0.0 0.00 0.00 0.00 58 1010.6
20260510031203 68 219 0.0 0.0 0.00 0.00 0.00 58 1010.6
20260510030703 68 219 0.0 0.0 0.00 0.00 0.00 57 1010.5
20260510030203 68 219 0.0 0.0 0.00 0.00 0.00 57 1010.3
20260510025703 68 219 0.0 0.0 0.00 0.00 0.00 57 1010.0
20260510024704 67 219 0.0 0.0 0.00 0.00 0.00 58 1010.0
20260510024204 67 219 0.0 0.0 0.00 0.00 0.00 58 1009.9
20260510023704 67 219 0.0 0.0 0.00 0.00 0.00 58 1009.7
20260510022703 67 219 0.0 0.0 0.00 0.00 0.00 58 1009.6
20260510022203 68 219 0.0 0.0 0.00 0.00 0.00 55 1009.5
20260510021703 68 219 0.0 0.0 0.00 0.00 0.00 54 1009.4
20260510021203 69 219 0.0 0.0 0.00 0.00 0.00 54 1009.3
20260510020703 69 219 0.0 0.0 0.00 0.00 0.00 52 1009.1
20260510020204 69 219 0.0 0.0 0.00 0.00 0.00 52 1009.0
20260510014203 70 219 0.0 0.0 0.00 0.00 0.00 52 1008.7
20260510013703 71 250 0.0 0.0 0.00 0.00 0.00 51 1008.7
20260510013203 71 263 0.0 0.0 0.00 0.00 0.00 48 1008.5
20260510012704 72 264 0.0 0.0 0.00 0.00 0.00 47 1008.4
20260510012204 73 264 0.0 0.0 0.00 0.00 0.00 46 1008.5
20260510011204 74 264 0.0 0.0 0.00 0.00 0.00 44 1008.3
20260510010203 76 264 0.0 0.0 0.00 0.00 0.00 42 1008.2
20260510005704 78 264 0.0 0.0 0.00 0.00 0.00 42 1008.3
20260510005204 79 264 0.0 0.0 0.00 0.00 0.00 42 1008.2
20260510004704 80 261 0.0 0.0 0.00 0.00 0.00 41 1008.1
20260510004204 80 258 0.0 0.0 0.00 0.00 0.00 40 1008.1
20260510003704 82 258 0.0 0.0 0.00 0.00 0.00 39 1008.1
20260510003204 83 258 0.0 0.0 0.00 0.00 0.00 38 1008.0
20260510002204 85 258 0.0 0.0 0.00 0.00 0.00 36 1007.8
20260510001204 87 258 0.0 0.0 0.00 0.00 0.00 36 1008.0
20260510000704 87 258 0.0 0.0 0.00 0.00 0.00 34 1007.9
20260510000204 88 258 0.0 0.0 0.00 0.00 0.00 34 1007.9
20260509235703 87 258 0.0 0.0 0.00 0.00 0.00 31 1008.0
20260509234203 87 258 0.0 0.0 0.00 0.00 0.00 33 1008.0
20260509233703 87 258 0.0 0.0 0.00 0.00 0.00 33 1008.0
20260509233203 86 258 0.0 0.0 0.00 0.00 0.00 32 1008.0
20260509232703 87 258 0.0 0.0 0.00 0.00 0.00 36 1008.0
20260509231703 87 234 0.0 0.9 0.00 0.00 0.00 34 1008.0
20260509231204 86 233 0.0 0.9 0.00 0.00 0.00 33 1008.1
20260509230704 86 237 0.0 0.9 0.00 0.00 0.00 30 1008.0
20260509230203 86 237 0.0 0.9 0.00 0.00 0.00 33 1008.0
20260509225703 85 238 0.0 0.9 0.00 0.00 0.00 33 1008.0
20260509224704 83 274 0.9 1.7 0.00 0.00 0.00 34 1008.0
20260509224204 83 342 1.7 2.6 0.00 0.00 0.00 32 1008.0
20260509223704 83 274 0.9 4.3 0.00 0.00 0.00 32 1008.0
20260509223204 84 276 1.7 4.3 0.00 0.00 0.00 34 1008.0
20260509222704 85 9 1.7 2.6 0.00 0.00 0.00 32 1007.9
20260509222204 85 257 0.0 1.7 0.00 0.00 0.00 34 1008.0
20260509221704 85 331 0.0 1.7 0.00 0.00 0.00 34 1008.0
20260509221204 85 243 0.9 2.6 0.00 0.00 0.00 35 1008.1
20260509220703 85 252 0.9 2.6 0.00 0.00 0.00 34 1008.0
20260509220204 85 3 0.9 1.7 0.00 0.00 0.00 34 1008.0
20260509215703 84 261 0.9 5.2 0.00 0.00 0.00 37 1008.1
20260509215203 85 255 0.9 2.6 0.00 0.00 0.00 34 1008.0
20260509214704 85 257 0.0 1.7 0.00 0.00 0.00 32 1008.1
20260509214204 84 347 0.0 2.6 0.00 0.00 0.00 32 1008.1
20260509213703 84 250 0.9 4.3 0.00 0.00 0.00 34 1008.1
20260509213203 85 268 2.6 6.1 0.00 0.00 0.00 33 1008.1
20260509212703 86 96 0.0 0.9 0.00 0.00 0.00 34 1008.1
20260509212204 85 241 0.0 0.9 0.00 0.00 0.00 32 1008.1
20260509211203 85 273 0.9 2.6 0.00 0.00 0.00 32 1008.2
20260509210704 85 253 0.9 2.6 0.00 0.00 0.00 32 1008.2
20260509205704 86 217 0.0 1.7 0.00 0.00 0.00 34 1008.2
20260509205204 85 261 1.7 2.6 0.00 0.00 0.00 33 1008.3
20260509204704 85 291 0.9 2.6 0.00 0.00 0.00 32 1008.3
20260509204203 84 94 0.0 1.7 0.00 0.00 0.00 32 1008.3
20260509203703 84 288 0.0 1.7 0.00 0.00 0.00 33 1008.4
20260509202703 82 32 0.9 2.6 0.00 0.00 0.00 33 1008.5
20260509202203 83 56 3.5 6.1 0.00 0.00 0.00 31 1008.6
20260509201703 82 265 0.9 5.2 0.00 0.00 0.00 32 1008.6
20260509200703 84 57 2.6 4.3 0.00 0.00 0.00 32 1008.8
20260509200203 84 342 0.9 1.7 0.00 0.00 0.00 34 1008.8
20260509195704 83 307 0.9 2.6 0.00 0.00 0.00 35 1009.0
20260509194704 84 303 0.9 4.3 0.00 0.00 0.00 34 1009.0
20260509194204 84 353 0.9 2.6 0.00 0.00 0.00 32 1009.0
20260509193704 83 287 0.9 2.6 0.00 0.00 0.00 37 1009.0
20260509193203 83 263 0.9 2.6 0.00 0.00 0.00 36 1009.1
20260509192704 83 207 2.6 2.6 0.00 0.00 0.00 36 1009.2
20260509192204 83 231 0.9 2.6 0.00 0.00 0.00 35 1009.2
20260509191704 82 309 0.0 1.7 0.00 0.00 0.00 35 1009.1
20260509191204 82 34 2.6 4.3 0.00 0.00 0.00 33 1009.1